Ithaca, NY

2:32 AM EDT on April 29, 2017 (GMT -0400)
Tompkins County

Weather History for KITH - July, 2014

Change the Weather History Date:

Thursday, July 24, 2014

  Actual Average Record
Temperature  
Mean Temperature 59 °F -  
Max Temperature 68 °F 80 °F 95 °F (1941)
Min Temperature 50 °F 57 °F 42 °F (1985)
Degree Days  
Heating Degree Days 6    
Growing Degree Days 9 (Base 50)    
Moisture  
Dew Point 54 °F    
Average Humidity 77    
Maximum Humidity 97    
Minimum Humidity 52    
Precipitation  
Precipitation 0.00 in - - ()
Sea Level Pressure  
Sea Level Pressure 30.00 in    
Wind  
Wind Speed 5 mph (NNW)    
Max Wind Speed 14 mph    
Max Gust Speed 18 mph    
Visibility 10 miles    
Events      
Averages and records for this station are not official NWS values.
T = Trace of Precipitation, MM = Missing Value Source: NWS Daily Summary

Daily Weather History Graph

Daily Weather History Graph

Search for Another Location

Airport or City:

Trip Planner

Search our weather history database for the weather conditions in past years. The results will help you decide how hot, cold, wet, or windy it might be!

Date:

Astronomy

Jul. 24, 2014 Rise Set
Actual Time 5:50 AM EDT 8:34 PM EDT
Civil Twilight 5:17 AM EDT 9:06 PM EDT
Nautical Twilight 4:36 AM EDT 9:47 PM EDT
Astronomical Twilight 3:48 AM EDT 10:34 PM EDT
Moon 3:56 AM EDT (7/24) 6:46 PM EDT (7/24)
Length of Visible Light 15h 49m
Length of Day
14h 44m
Waning Crescent, 5% of the Moon is Illuminated
Jul 24
Waning Crescent
Jul 26
New
Aug 3
First Quarter
Aug 10
Full
Aug 17
Last Quarter

Hourly Weather History & Observations

Time (EDT) Temp. Dew Point Humidity Pressure Visibility Wind Dir Wind Speed Gust Speed Precip Events Conditions
12:29 AM 64.4 °F 62.6 °F 94% 29.96 in 10.0 mi Calm Calm - N/A   Overcast
12:56 AM 63.9 °F 61.9 °F 93% 29.95 in 10.0 mi Calm Calm - N/A   Overcast
1:56 AM 63.0 °F 61.9 °F 96% 29.95 in 10.0 mi NW 4.6 mph - N/A   Overcast
2:56 AM 63.0 °F 59.9 °F 90% 29.94 in 10.0 mi NNW 4.6 mph - N/A   Overcast
3:56 AM 61.0 °F 57.9 °F 90% 29.94 in 10.0 mi NNW 6.9 mph - N/A   Clear
4:56 AM 61.0 °F 57.9 °F 90% 29.95 in 10.0 mi NNW 3.5 mph - N/A   Overcast
5:56 AM 57.9 °F 55.9 °F 93% 29.98 in 10.0 mi WNW 5.8 mph - N/A   Scattered Clouds
6:27 AM 59.0 °F 55.4 °F 88% 30.00 in 10.0 mi NNW 3.5 mph - N/A   Mostly Cloudy
6:56 AM 59.9 °F 54.9 °F 83% 30.00 in 10.0 mi NNW 5.8 mph - N/A   Overcast
7:56 AM 61.0 °F 52.9 °F 75% 30.00 in 10.0 mi North 5.8 mph - N/A   Mostly Cloudy
8:56 AM 63.9 °F 54.9 °F 72% 30.00 in 10.0 mi NW 8.1 mph - N/A   Partly Cloudy
9:56 AM 64.9 °F 54.0 °F 68% 30.00 in 10.0 mi NNW 11.5 mph - N/A   Scattered Clouds
10:56 AM 66.9 °F 54.0 °F 63% 30.02 in 10.0 mi North 10.4 mph - N/A   Scattered Clouds
11:56 AM 68.0 °F 50.9 °F 54% 30.02 in 10.0 mi North 13.8 mph 18.4 mph N/A   Mostly Cloudy
12:56 PM 66.9 °F 52.0 °F 59% 30.03 in 10.0 mi NNW 12.7 mph 18.4 mph N/A   Mostly Cloudy
1:56 PM 68.0 °F 50.9 °F 54% 30.02 in 10.0 mi NNW 11.5 mph - N/A   Mostly Cloudy
2:56 PM 66.9 °F 50.9 °F 56% 30.01 in 10.0 mi North 12.7 mph - N/A   Mostly Cloudy
4:56 PM 66.9 °F 48.9 °F 52% 30.00 in 10.0 mi North 12.7 mph 16.1 mph N/A   Partly Cloudy
5:56 PM 66.9 °F 50.0 °F 54% 30.00 in 10.0 mi NNW 9.2 mph - N/A   Partly Cloudy
6:56 PM 65.8 °F 50.0 °F 57% 30.01 in 10.0 mi North 5.8 mph - N/A   Partly Cloudy
7:56 PM 63.0 °F 50.9 °F 65% 30.01 in 10.0 mi North 5.8 mph - N/A   Clear
8:56 PM 55.9 °F 52.9 °F 89% 30.02 in 10.0 mi Calm Calm - N/A   Clear
9:56 PM 52.9 °F 50.9 °F 93% 30.03 in 10.0 mi North 3.5 mph - N/A   Clear
10:56 PM 50.9 °F 50.0 °F 97% 30.04 in 10.0 mi Calm Calm - N/A   Clear
11:56 PM 50.0 °F 48.9 °F 96% 30.05 in 10.0 mi Calm Calm - N/A   Clear